When you browse on this site, cookies collect data to enhance your experience and personalize the content and advertising you see.
Visit our Privacy Policy to learn more. By continuing to use the site, you agree to this use of cookies and data.
  • In Romania
  • List of Countries
  • For 7 days
  • Water Temperature
  • Satellite Maps
  • Weather Map
  • Weather Widgets
  • user-avatar
    Login

    Hourly Weather Zastruze

    Today, 24 February, Sunday

    Time Temperature Precipitation Wind Pressure Humidity
    00:00 -1°C° 0 mm 1 mps 763 mmHg 36%
    01:00 -1°C° 0 mm 1 mps 763 mmHg 34%
    02:00 0°C° 0 mm 1 mps 763 mmHg 34%
    03:00 -1°C° 0 mm 0 mps 763 mmHg 33%
    04:00 -1°C° 0 mm 0 mps 762 mmHg 32%
    05:00 -1°C° 0 mm 0 mps 762 mmHg 31%
    06:00 0°C° 0 mm 0 mps 762 mmHg 31%
    07:00 0°C° 0 mm 0 mps 762 mmHg 31%
    08:00 +1°C° 0 mm 0 mps 762 mmHg 30%
    09:00 +2°C° 0 mm 0 mps 762 mmHg 29%
    10:00 +4°C° 0 mm 1 mps 762 mmHg 28%
    11:00 +5°C° 0 mm 1 mps 762 mmHg 28%
    12:00 +6°C° 0 mm 2 mps 762 mmHg 27%
    13:00 +7°C° 0 mm 2 mps 762 mmHg 27%
    14:00 +7°C° 0 mm 2 mps 761 mmHg 32%
    15:00 +6°C° 0 mm 2 mps 761 mmHg 38%
    16:00 +6°C° 0 mm 2 mps 761 mmHg 44%
    17:00 +5°C° 0 mm 2 mps 761 mmHg 46%
    18:00 +4°C° 0 mm 2 mps 761 mmHg 49%
    19:00 +2°C° 0 mm 2 mps 761 mmHg 52%
    20:00 +2°C° 0 mm 2 mps 761 mmHg 53%
    21:00 +2°C° 0 mm 2 mps 761 mmHg 54%
    22:00 +2°C° 0 mm 2 mps 761 mmHg 55%
    23:00 +2°C° 0 mm 2 mps 761 mmHg 56%

    Tomorrow, 25 February, Monday

    Time Temperature Precipitation Wind Pressure Humidity
    00:00 +2°C° 0 mm 2 mps 761 mmHg 57%
    01:00 +2°C° 0 mm 2 mps 761 mmHg 58%
    02:00 +2°C° 0 mm 2 mps 761 mmHg 59%
    03:00 +2°C° 0 mm 2 mps 761 mmHg 61%
    04:00 +2°C° 0 mm 2 mps 760 mmHg 62%
    05:00 +2°C° 0 mm 2 mps 760 mmHg 63%
    06:00 +1°C° 0 mm 2 mps 760 mmHg 65%
    07:00 +1°C° 0 mm 2 mps 760 mmHg 66%
    08:00 +2°C° 0 mm 3 mps 761 mmHg 61%
    09:00 +4°C° 0 mm 4 mps 761 mmHg 57%
    10:00 +5°C° 0 mm 4 mps 761 mmHg 52%
    11:00 +6°C° 0 mm 4 mps 761 mmHg 52%
    12:00 +7°C° 0 mm 4 mps 760 mmHg 52%
    13:00 +8°C° 0 mm 4 mps 760 mmHg 51%
    14:00 +8°C° 0 mm 4 mps 760 mmHg 54%
    15:00 +8°C° 0 mm 4 mps 759 mmHg 57%
    16:00 +9°C° 0 mm 3 mps 759 mmHg 60%
    17:00 +8°C° 0 mm 3 mps 759 mmHg 65%
    18:00 +5°C° 0 mm 3 mps 759 mmHg 70%
    19:00 +4°C° 0 mm 3 mps 759 mmHg 74%
    20:00 +3°C° 0 mm 3 mps 759 mmHg 76%
    21:00 +3°C° 0 mm 3 mps 759 mmHg 78%
    22:00 +3°C° 0 mm 3 mps 759 mmHg 80%
    23:00 +2°C° 0 mm 3 mps 759 mmHg 81%

    Day after tomorrow, 26 February, Tuesday

    Time Temperature Precipitation Wind Pressure Humidity
    00:00 +2°C° 0 mm 3 mps 759 mmHg 82%
    01:00 +2°C° 0 mm 3 mps 759 mmHg 82%
    02:00 +2°C° 0 mm 3 mps 758 mmHg 82%
    03:00 +2°C° 0 mm 3 mps 758 mmHg 82%
    04:00 +2°C° 0 mm 3 mps 758 mmHg 82%
    05:00 +2°C° 0 mm 3 mps 758 mmHg 82%
    06:00 +1°C° 0 mm 4 mps 757 mmHg 82%
    07:00 +1°C° 0 mm 4 mps 757 mmHg 82%
    08:00 +4°C° 0 mm 4 mps 757 mmHg 73%
    09:00 +5°C° 0 mm 5 mps 757 mmHg 63%
    10:00 +7°C° 0 mm 6 mps 757 mmHg 54%
    11:00 +7°C° 0 mm 6 mps 757 mmHg 52%
    12:00 +8°C° 0 mm 6 mps 756 mmHg 51%
    13:00 +9°C° 0 mm 6 mps 756 mmHg 49%
    14:00 +9°C° 0 mm 6 mps 756 mmHg 51%
    15:00 +9°C° 0 mm 6 mps 756 mmHg 54%
    16:00 +9°C° 0 mm 6 mps 755 mmHg 56%
    17:00 +8°C° 0 mm 5 mps 756 mmHg 60%
    18:00 +7°C° 0 mm 4 mps 756 mmHg 65%
    19:00 +6°C° 0 mm 4 mps 756 mmHg 69%
    20:00 +5°C° 0 mm 3 mps 756 mmHg 71%
    21:00 +5°C° 0 mm 3 mps 756 mmHg 74%
    22:00 +4°C° 0 mm 3 mps 756 mmHg 76%
    23:00 +4°C° 0 mm 3 mps 756 mmHg 78%

    27 February, Wednesday

    Time Temperature Precipitation Wind Pressure Humidity
    00:00 +4°C° 0 mm 3 mps 756 mmHg 80%
    01:00 +4°C° 0 mm 2 mps 756 mmHg 82%
    02:00 +4°C° 0 mm 2 mps 756 mmHg 83%
    03:00 +4°C° 0 mm 2 mps 756 mmHg 85%
    04:00 +4°C° 0 mm 2 mps 756 mmHg 86%
    05:00 +3°C° 0 mm 2 mps 756 mmHg 86%
    06:00 +3°C° 0 mm 2 mps 755 mmHg 85%
    07:00 +3°C° 0 mm 2 mps 755 mmHg 85%
    08:00 +5°C° 0 mm 2 mps 755 mmHg 77%
    09:00 +7°C° 0 mm 2 mps 755 mmHg 68%
    10:00 +8°C° 0 mm 3 mps 755 mmHg 60%
    11:00 +10°C° 0 mm 3 mps 755 mmHg 55%
    12:00 +11°C° 0 mm 3 mps 754 mmHg 50%
    13:00 +13°C° 0 mm 3 mps 754 mmHg 46%
    14:00 +13°C° 0 mm 3 mps 753 mmHg 47%
    15:00 +13°C° 0 mm 3 mps 753 mmHg 48%
    16:00 +13°C° 0 mm 3 mps 752 mmHg 49%
    17:00 +12°C° 0 mm 2 mps 752 mmHg 55%
    18:00 +10°C° 0 mm 2 mps 752 mmHg 60%
    19:00 +8°C° 0 mm 2 mps 752 mmHg 65%
    20:00 +8°C° 0 mm 2 mps 751 mmHg 65%
    21:00 +8°C° 0 mm 2 mps 751 mmHg 64%
    22:00 +7°C° 0 mm 3 mps 751 mmHg 64%
    23:00 +7°C° 0 mm 3 mps 750 mmHg 63%

    28 February, Thursday

    Time Temperature Precipitation Wind Pressure Humidity
    00:00 +7°C° 0 mm 3 mps 750 mmHg 61%
    01:00 +7°C° 0 mm 3 mps 750 mmHg 60%
    02:00 +5°C° 0 mm 3 mps 749 mmHg 60%
    03:00 +5°C° 0 mm 3 mps 749 mmHg 60%
    04:00 +5°C° 0 mm 3 mps 748 mmHg 59%
    05:00 +5°C° 0 mm 3 mps 748 mmHg 60%
    06:00 +5°C° 0 mm 3 mps 747 mmHg 61%
    07:00 +5°C° 0 mm 4 mps 747 mmHg 62%
    08:00 +7°C° 0 mm 5 mps 747 mmHg 59%
    09:00 +8°C° 0 mm 6 mps 747 mmHg 55%
    10:00 +10°C° 0 mm 6 mps 747 mmHg 52%
    11:00 +11°C° 0 mm 7 mps 746 mmHg 53%
    12:00 +12°C° 0 mm 7 mps 746 mmHg 54%
    13:00 +12°C° 0 mm 7 mps 745 mmHg 55%
    14:00 +12°C° 0 mm 7 mps 745 mmHg 57%
    15:00 +12°C° 0 mm 7 mps 745 mmHg 59%
    16:00 +11°C° 0 mm 7 mps 745 mmHg 62%
    17:00 +10°C° 0 mm 6 mps 745 mmHg 69%
    18:00 +9°C° 0 mm 5 mps 745 mmHg 76%
    19:00 +8°C° 0 mm 5 mps 746 mmHg 83%
    20:00 +7°C° 0 mm 5 mps 746 mmHg 85%
    21:00 +6°C° 0 mm 5 mps 746 mmHg 88%
    22:00 +6°C° 0 mm 5 mps 746 mmHg 91%
    23:00 +5°C° 0 mm 4 mps 746 mmHg 92%

    1 March, Friday

    Time Temperature Precipitation Wind Pressure Humidity
    00:00 +5°C° 0 mm 4 mps 747 mmHg 93%
    01:00 +4°C° 0 mm 4 mps 747 mmHg 95%
    02:00 +4°C° 0 mm 4 mps 747 mmHg 94%
    03:00 +4°C° 0 mm 4 mps 747 mmHg 93%
    04:00 +4°C° 0 mm 4 mps 747 mmHg 92%
    05:00 +4°C° 0 mm 4 mps 747 mmHg 92%
    06:00 +4°C° 0 mm 4 mps 747 mmHg 91%
    07:00 +3°C° 0 mm 4 mps 747 mmHg 91%
    08:00 +4°C° 0 mm 4 mps 748 mmHg 86%
    09:00 +5°C° 0 mm 5 mps 748 mmHg 80%
    10:00 +5°C° 0 mm 5 mps 748 mmHg 75%
    11:00 +6°C° 0 mm 5 mps 748 mmHg 70%
    12:00 +7°C° 0 mm 5 mps 748 mmHg 65%
    13:00 +7°C° 0 mm 5 mps 748 mmHg 61%
    14:00 +7°C° 0 mm 4 mps 748 mmHg 59%
    15:00 +7°C° 0 mm 4 mps 748 mmHg 58%
    16:00 +7°C° 0 mm 4 mps 748 mmHg 57%
    17:00 +7°C° 0 mm 3 mps 748 mmHg 61%
    18:00 +5°C° 0 mm 3 mps 748 mmHg 65%
    19:00 +5°C° 0 mm 2 mps 749 mmHg 69%
    20:00 +4°C° 0 mm 2 mps 749 mmHg 70%
    21:00 +4°C° 0 mm 2 mps 750 mmHg 72%
    22:00 +3°C° 0 mm 2 mps 750 mmHg 74%
    23:00 +3°C° 0 mm 2 mps 750 mmHg 75%
    Show more